GW4183 Weather Reports


time (UTC)temp
C
wind
direction
speed
KPH
gust
KPH
rain 1hr
cm
rain 24hr
cm
rain mn
cm
humidity
%
barometer
mb
20260906200810 30 81 3.2 9.7 0.00 0.97 0.97 63 1017.4
20260906200306 30 55 3.2 6.4 0.00 0.97 0.97 63 1017.4
20260906195801 30 2 3.2 6.4 0.00 0.97 0.97 59 1017.5
20260906195257 31 322 1.6 6.4 0.00 0.97 0.97 58 1017.5
20260906194753 32 240 4.8 9.7 0.00 0.97 0.97 54 1017.2
20260906194248 31 246 3.2 9.7 0.00 0.97 0.97 57 1017.5
20260906193743 31 278 1.6 9.7 0.00 0.97 0.97 57 1017.5
20260906193237 31 331 1.6 6.4 0.00 0.97 0.97 58 1017.5
20260906192734 31 280 4.8 11.3 0.00 0.97 0.97 58 1017.5
20260906192228 31 278 3.2 6.4 0.00 0.97 0.97 57 1017.5
20260906191727 31 226 8.0 12.9 0.00 0.97 0.97 58 1017.4
20260906191222 31 193 4.8 12.9 0.00 0.97 0.97 59 1017.5
20260906190721 31 274 4.8 9.7 0.00 0.97 0.97 57 1017.2
20260906190216 31 286 6.4 9.7 0.00 0.97 0.97 57 1017.6
20260906185715 31 265 4.8 12.9 0.00 0.97 0.97 57 1017.5
20260906185214 31 273 8.0 11.3 0.00 0.97 0.97 58 1017.5
20260906184709 30 295 6.4 11.3 0.00 0.97 0.97 58 1017.4
20260906184204 30 183 3.2 9.7 0.00 0.97 0.97 58 1017.8
20260906183700 30 246 4.8 14.5 0.00 0.97 0.97 59 1017.8
20260906183156 30 238 3.2 6.4 0.00 0.97 0.97 59 1017.6
20260906182656 30 235 4.8 12.9 0.00 0.97 0.97 58 1017.7
20260906182152 30 150 4.8 9.7 0.00 0.97 0.97 57 1017.6
20260906181647 30 233 3.2 12.9 0.00 0.97 0.97 57 1017.6
20260906181143 30 223 8.0 11.3 0.00 0.97 0.97 57 1017.6
20260906180639 30 261 6.4 11.3 0.00 0.97 0.97 58 1017.6
20260906180138 30 278 1.6 9.7 0.00 0.97 0.97 58 1017.6
20260906175636 30 240 6.4 6.4 0.00 0.97 0.97 57 1017.6
20260906175132 30 251 4.8 12.9 0.00 0.97 0.97 57 1017.6
20260906174630 30 287 1.6 9.7 0.00 0.97 0.97 57 1017.6
20260906174125 30 286 6.4 9.7 0.00 0.97 0.97 58 1017.5
20260906173620 30 197 6.4 9.7 0.00 0.97 0.97 56 1017.5
20260906173115 30 312 3.2 6.4 0.00 0.97 0.97 58 1017.6
20260906172609 29 177 3.2 11.3 0.00 0.97 0.97 58 1017.5
20260906172105 29 273 8.0 14.5 0.00 0.97 0.97 57 1017.1
20260906171604 29 267 4.8 12.9 0.00 0.97 0.97 58 1017.2
20260906171100 30 245 6.4 12.9 0.00 0.97 0.97 57 1017.4
20260906170556 29 213 3.2 11.3 0.00 0.97 0.97 57 1017.4
20260906170055 29 305 4.8 6.4 0.00 0.97 0.97 56 1017.4
20260906165552 29 270 9.7 14.5 0.00 0.97 0.97 55 1017.5
20260906165046 29 205 8.0 11.3 0.00 0.97 0.97 55 1017.2
20260906164546 28 195 6.4 16.1 0.00 0.97 0.97 55 1017.1
20260906164042 28 274 1.6 9.7 0.00 0.97 0.97 57 1017.1
20260906163537 27 228 3.2 4.8 0.00 0.97 0.97 58 1017.1
20260906163033 27 259 4.8 14.5 0.00 0.97 0.97 56 1016.9
20260906162530 27 295 1.6 9.7 0.00 0.97 0.97 56 1017.2
20260906162025 26 277 3.2 11.3 0.00 0.97 0.97 56 1017.2
20260906161520 25 302 1.6 3.2 0.00 0.97 0.97 60 1017.1
20260906161018 25 253 4.8 6.4 0.00 0.97 0.97 61 1017.2
20260906160518 25 259 3.2 3.2 0.00 0.97 0.97 61 1017.4
20260906160017 24 27 1.6 3.2 0.00 0.97 0.97 63 1017.1
20260906155514 23 278 1.6 4.8 0.00 0.97 0.97 65 1017.2
20260906155010 23 291 0.0 3.2 0.00 0.97 0.97 69 1017.0
20260906154506 23 304 0.0 0.0 0.00 0.97 0.97 69 1017.2
20260906154004 24 283 1.6 9.7 0.00 0.97 0.97 63 1017.4
20260906153503 24 301 3.2 3.2 0.00 0.97 0.97 63 1016.5
20260906152958 24 269 4.8 9.7 0.00 0.97 0.97 63 1016.8
20260906152453 23 246 6.4 9.7 0.00 0.97 0.97 62 1016.9
20260906151953 23 76 4.8 9.7 0.00 0.97 0.97 64 1016.7
20260906151448 23 249 3.2 6.4 0.00 0.97 0.97 66 1017.0
20260906150944 23 247 8.0 11.3 0.00 0.97 0.97 64 1016.7
20260906150439 23 205 6.4 11.3 0.00 0.97 0.97 65 1016.1
20260906145938 23 122 11.3 16.1 0.00 0.97 0.97 67 1016.5
20260906145437 22 190 11.3 25.7 0.00 0.97 0.97 70 1016.8
20260906144932 22 326 3.2 16.1 0.00 0.97 0.97 74 1017.2
20260906144426 22 91 6.4 11.3 0.00 0.97 0.97 76 1017.5
20260906143922 21 275 3.2 6.4 0.00 0.97 0.97 80 1017.5
20260906143418 21 273 1.6 6.4 0.00 0.97 0.97 82 1017.5
20260906142913 20 297 1.6 11.3 0.00 0.97 0.97 86 1018.2
20260906142413 20 299 4.8 14.5 0.00 0.97 0.97 87 1017.8
20260906141908 20 292 8.0 17.7 0.00 0.97 0.97 89 1017.2
20260906141408 20 140 3.2 9.7 0.00 0.97 0.97 91 1018.4
20260906140902 20 290 1.6 4.8 0.00 0.97 0.97 92 1019.4
20260906140357 20 267 6.4 6.4 0.00 0.97 0.97 93 1019.6
20260906135854 20 311 1.6 6.4 0.18 0.97 0.97 94 1019.9
20260906135348 19 240 3.2 3.2 0.30 0.97 0.97 95 1020.1
20260906134844 19 287 1.6 3.2 0.30 0.94 0.94 94 1020.6
20260906134339 19 282 1.6 1.6 0.48 0.91 0.91 97 1020.5
20260906133835 19 286 0.0 0.0 0.61 0.89 0.89 97 1020.8
20260906133330 19 268 3.2 4.8 0.61 0.84 0.84 97 1021.1
20260906132825 19 282 0.0 3.2 0.61 0.79 0.79 97 1021.0
20260906132321 19 328 0.0 4.8 0.48 0.74 0.74 97 1020.6
20260906131816 19 345 1.6 1.6 0.18 0.69 0.69 97 1020.1
20260906131311 19 338 0.0 1.6 0.13 0.66 0.66 97 1020.1
20260906130807 19 321 0.0 1.6 0.13 0.66 0.66 97 1020.1
20260906130301 19 342 0.0 1.6 0.18 0.64 0.64 97 1019.9
20260906125800 20 307 1.6 4.8 0.48 0.64 0.64 97 1020.7
20260906125258 20 252 1.6 6.4 0.61 0.61 0.61 97 1020.5
20260906124752 19 271 3.2 3.2 0.30 0.56 0.56 97 1020.6
20260906124248 19 301 1.6 4.8 0.13 0.51 0.51 97 1020.2
20260906123747 19 302 0.0 0.0 0.13 0.51 0.51 97 1020.2
20260906123242 19 273 1.6 3.2 0.18 0.48 0.48 97 1020.3
20260906122742 19 335 0.0 0.0 0.30 0.48 0.48 97 1020.6
20260906122237 19 353 1.6 3.2 0.30 0.46 0.46 97 1020.5
20260906121734 19 353 1.6 3.2 0.36 0.43 0.43 97 1020.0
20260906121230 19 357 1.6 3.2 0.48 0.41 0.41 97 1020.0
20260906120725 19 345 1.6 1.6 0.43 0.38 0.38 96 1020.1
20260906120222 19 341 1.6 3.2 0.13 0.33 0.33 96 1020.2
20260906115718 19 344 1.6 3.2 0.18 0.30 0.30 96 1020.2
20260906115213 19 6 1.6 3.2 0.30 0.30 0.30 96 1020.3
20260906114711 19 341 1.6 3.2 0.43 0.28 0.28 95 1020.2
20260906114206 19 344 1.6 3.2 0.48 0.25 0.25 95 1020.2
20260906113701 19 349 1.6 3.2 0.18 0.20 0.20 95 1019.8
20260906113201 20 345 1.6 4.8 0.13 0.18 0.18 94 1020.1
20260906112700 20 352 1.6 3.2 0.43 0.18 0.18 94 1020.6
20260906112158 20 46 1.6 3.2 0.97 0.15 0.15 92 1020.2
20260906111657 20 4 3.2 6.4 0.66 0.10 0.10 91 1019.9
20260906111151 20 352 3.2 6.4 0.00 0.00 0.00 88 1019.7
20260906110646 21 343 1.6 3.2 0.00 0.00 0.00 88 1019.7
20260906110142 21 348 1.6 1.6 0.00 0.00 0.00 87 1019.7
20260906105635 21 341 3.2 3.2 0.00 0.00 0.00 86 1019.3
20260906105132 21 350 0.0 3.2 0.00 0.00 0.00 85 1019.0
20260906104631 22 341 3.2 11.3 0.00 0.00 0.00 82 1018.6
20260906104130 22 346 3.2 4.8 0.00 0.00 0.00 79 1018.7
20260906103629 22 11 4.8 4.8 0.00 0.00 0.00 78 1018.5
20260906103124 23 13 1.6 4.8 0.00 0.00 0.00 78 1018.2
20260906102620 23 347 1.6 4.8 0.00 0.00 0.00 77 1018.2
20260906102114 23 8 3.2 6.4 0.00 0.00 0.00 76 1018.3
20260906101608 23 342 3.2 4.8 0.00 0.00 0.00 75 1018.2
20260906101108 23 336 3.2 6.4 0.00 0.00 0.00 75 1018.1
20260906100604 23 2 3.2 6.4 0.00 0.00 0.00 75 1018.0
20260906100059 23 34 6.4 14.5 0.00 0.00 0.00 75 1017.9
20260906095559 24 339 1.6 6.4 0.00 0.00 0.00 76 1018.0
20260906095054 24 324 3.2 12.9 0.00 0.00 0.00 76 1018.1
20260906094553 24 349 3.2 3.2 0.00 0.00 0.00 78 1018.2
20260906094049 23 346 3.2 3.2 0.00 0.00 0.00 79 1017.9
20260906093544 23 310 1.6 3.2 0.00 0.00 0.00 80 1018.2
20260906093039 23 323 0.0 0.0 0.00 0.00 0.00 79 1016.8
20260906092534 23 343 0.0 3.2 0.00 0.00 0.00 79 1016.8
20260906092030 23 349 0.0 1.6 0.00 0.00 0.00 79 1016.7
20260906091525 23 358 0.0 3.2 0.00 0.00 0.00 79 1016.6
20260906091022 24 4 1.6 3.2 0.00 0.00 0.00 78 1016.7
20260906090521 24 7 0.0 3.2 0.00 0.00 0.00 78 1016.5
20260906090016 24 12 1.6 3.2 0.00 0.00 0.00 78 1016.6
20260906085515 24 1 0.0 3.2 0.00 0.00 0.00 78 1016.7
20260906085010 24 274 0.0 1.6 0.00 0.00 0.00 78 1016.8
20260906084509 24 343 0.0 1.6 0.00 0.00 0.00 78 1016.4
20260906084008 24 23 1.6 1.6 0.00 0.00 0.00 78 1016.5
20260906083504 24 329 1.6 1.6 0.00 0.00 0.00 78 1016.4
20260906083003 24 64 3.2 4.8 0.00 0.00 0.00 78 1016.6
20260906082459 24 13 1.6 1.6 0.00 0.00 0.00 78 1016.7
20260906081954 24 71 1.6 3.2 0.00 0.00 0.00 77 1016.4
20260906081449 24 299 0.0 3.2 0.00 0.00 0.00 77 1016.2
20260906080945 24 308 0.0 3.2 0.00 0.00 0.00 76 1016.6
20260906080443 24 314 0.0 1.6 0.00 0.00 0.00 77 1016.5
20260906075942 24 65 1.6 1.6 0.00 0.00 0.00 77 1016.6
20260906075437 24 274 0.0 1.6 0.00 0.00 0.00 77 1016.8
20260906074932 24 346 0.0 3.2 0.00 0.00 0.00 78 1016.7
20260906074426 24 52 1.6 1.6 0.00 0.00 0.00 78 1016.7
20260906073925 24 312 0.0 1.6 0.00 0.00 0.00 78 1016.3
20260906073420 24 275 0.0 1.6 0.00 0.00 0.00 79 1016.6
20260906072917 24 320 0.0 0.0 0.00 0.00 0.00 79 1016.8
20260906072412 24 319 0.0 0.0 0.00 0.00 0.00 79 1016.9
20260906071908 24 340 1.6 1.6 0.00 0.00 0.00 78 1016.7
20260906071403 25 340 0.0 1.6 0.00 0.00 0.00 78 1016.7
20260906070858 25 19 1.6 3.2 0.00 0.00 0.00 78 1017.1
20260906070355 25 301 0.0 1.6 0.00 0.00 0.00 78 1016.9
20260906065850 25 341 0.0 0.0 0.00 0.00 0.00 78 1017.0
20260906065344 25 60 3.2 3.2 0.00 0.00 0.00 78 1016.8
20260906064840 25 335 0.0 0.0 0.00 0.00 0.00 79 1016.8
20260906064337 25 11 0.0 1.6 0.00 0.00 0.00 79 1016.6
20260906063836 25 26 3.2 3.2 0.00 0.00 0.00 78 1016.5
20260906063332 25 16 1.6 1.6 0.00 0.00 0.00 76 1016.7
20260906062827 25 13 1.6 1.6 0.00 0.00 0.00 75 1016.5
20260906062326 25 355 1.6 1.6 0.00 0.00 0.00 74 1016.6
20260906061821 25 358 0.0 1.6 0.00 0.00 0.00 74 1016.5
20260906061318 25 262 1.6 1.6 0.00 0.00 0.00 74 1016.5
20260906060812 26 356 0.0 1.6 0.00 0.00 0.00 73 1016.4
20260906060310 26 308 1.6 1.6 0.00 0.00 0.00 73 1016.6
20260906055806 26 315 0.0 0.0 0.00 0.00 0.00 73 1016.4
20260906055301 26 349 1.6 4.8 0.00 0.00 0.00 72 1016.6
20260906054756 26 346 0.0 4.8 0.00 0.00 0.00 72 1016.6
20260906054251 26 345 0.0 3.2 0.00 0.00 0.00 73 1016.7
20260906053748 26 331 0.0 3.2 0.00 0.00 0.00 72 1016.7
20260906053243 26 10 1.6 3.2 0.00 0.00 0.00 73 1016.8
20260906052738 26 318 0.0 1.6 0.00 0.00 0.00 74 1016.8
20260906052234 26 352 0.0 1.6 0.00 0.00 0.00 75 1016.9
20260906051731 26 2 0.0 1.6 0.00 0.00 0.00 75 1016.8
20260906051231 26 6 1.6 1.6 0.00 0.00 0.00 75 1016.9
20260906050726 26 342 0.0 0.0 0.00 0.00 0.00 75 1017.0
20260906050221 26 342 0.0 0.0 0.00 0.00 0.00 75 1017.0
20260906045720 26 342 0.0 1.6 0.00 0.00 0.00 74 1016.9
20260906045215 26 342 0.0 1.6 0.00 0.00 0.00 74 1016.8
20260906044711 26 36 1.6 1.6 0.00 0.00 0.00 72 1016.8
20260906044206 26 351 1.6 1.6 0.00 0.00 0.00 72 1016.8
20260906043702 27 340 0.0 0.0 0.00 0.00 0.00 71 1016.9
20260906043157 27 340 0.0 1.6 0.00 0.00 0.00 70 1016.9
20260906042657 27 340 1.6 1.6 0.00 0.00 0.00 69 1016.9
20260906042156 27 313 0.0 0.0 0.00 0.00 0.00 69 1016.9
20260906041652 27 309 0.0 0.0 0.00 0.00 0.00 69 1016.7
20260906041147 27 13 1.6 3.2 0.00 0.00 0.00 68 1016.7
20260906040643 27 336 1.6 3.2 0.00 0.00 0.00 68 1016.8
20260906040138 27 295 0.0 1.6 0.00 0.00 0.00 68 1016.8
20260906035633 27 299 0.0 1.6 0.00 0.00 0.00 68 1016.5
20260906035129 27 337 0.0 1.6 0.00 0.00 0.00 68 1016.6
20260906034629 27 83 1.6 4.8 0.00 0.00 0.00 69 1016.5
20260906034124 27 357 0.0 1.6 0.00 0.00 0.00 72 1016.5
20260906033620 27 354 1.6 1.6 0.00 0.00 0.00 72 1016.6
20260906033114 27 346 1.6 3.2 0.00 0.00 0.00 72 1016.5
20260906032611 27 9 0.0 1.6 0.00 0.00 0.00 73 1016.4
20260906032111 27 318 0.0 3.2 0.00 0.00 0.00 73 1016.3
20260906031606 27 11 0.0 1.6 0.00 0.00 0.00 74 1016.2
20260906031102 27 11 0.0 1.6 0.00 0.00 0.00 73 1016.3
20260906030601 27 11 0.0 1.6 0.00 0.00 0.00 73 1016.4
20260906030055 27 0 0.0 3.2 0.00 0.00 0.00 72 1016.3
20260906025550 27 345 1.6 3.2 0.00 0.00 0.00 73 1016.1
20260906025048 27 339 0.0 1.6 0.00 0.00 0.00 74 1016.4
20260906024543 27 339 0.0 0.0 0.00 0.00 0.00 74 1016.2
20260906024037 27 339 1.6 1.6 0.00 0.00 0.00 74 1016.1
20260906023534 28 339 0.0 1.6 0.00 0.00 0.00 74 1016.0
20260906023028 28 341 0.0 0.0 0.00 0.00 0.00 73 1016.1
20260906022524 28 346 1.6 1.6 0.00 0.00 0.00 73 1016.1
20260906022019 28 10 0.0 1.6 0.00 0.00 0.00 73 1015.9
20260906021514 28 354 0.0 0.0 0.00 0.00 0.00 72 1015.8
20260906021009 28 354 0.0 1.6 0.00 0.00 0.00 71 1015.8
20260906020508 28 4 1.6 3.2 0.00 0.00 0.00 71 1015.6
20260906020008 28 1 1.6 1.6 0.00 0.00 0.00 71 1015.6
20260906015507 28 309 0.0 3.2 0.00 0.00 0.00 73 1015.4
20260906015006 28 295 0.0 1.6 0.00 0.00 0.00 75 1015.8
20260906014501 28 8 1.6 1.6 0.00 0.00 0.00 75 1015.6
20260906013951 28 13 0.0 1.6 0.00 0.00 0.00 75 1015.5
20260906013447 28 0 0.0 0.0 0.00 0.00 0.00 76 1015.4
20260906012942 28 0 0.0 1.6 0.00 0.00 0.00 75 1015.5
20260906012437 28 0 0.0 0.0 0.00 0.00 0.00 75 1015.3
20260906011936 28 0 0.0 0.0 0.00 0.00 0.00 75 1015.5
20260906011432 28 0 0.0 0.0 0.00 0.00 0.00 74 1015.2
20260906010927 28 0 0.0 1.6 0.00 0.00 0.00 73 1015.2
20260906010422 29 0 0.0 0.0 0.00 0.00 0.00 72 1015.2
20260906005919 30 0 0.0 0.0 0.00 0.00 0.00 70 1015.2
20260906005418 30 3 1.6 3.2 0.00 0.00 0.00 69 1015.2
20260906004916 30 351 0.0 1.6 0.00 0.00 0.00 69 1015.1
20260906004411 30 36 1.6 4.8 0.00 0.00 0.00 67 1015.2
20260906003907 30 344 0.0 1.6 0.00 0.00 0.00 67 1015.2
20260906003402 30 348 1.6 1.6 0.00 0.00 0.00 67 1015.0
20260906002857 31 344 1.6 3.2 0.00 0.00 0.00 66 1015.0
20260906002356 31 340 0.0 0.0 0.00 0.00 0.00 66 1015.1
20260906001852 31 357 0.0 1.6 0.00 0.00 0.00 65 1015.1
20260906001348 31 312 1.6 4.8 0.00 0.00 0.00 64 1015.1
20260906000842 31 159 1.6 6.4 0.00 0.00 0.00 63 1014.9
20260906000337 31 299 0.0 1.6 0.00 0.00 0.00 63 1015.0
20260905235836 31 256 0.0 6.4 0.00 0.00 0.00 63 1014.9
20260905235331 31 79 3.2 6.4 0.00 0.00 0.00 63 1014.8
20260905234827 31 287 3.2 9.7 0.00 0.00 0.00 62 1015.1
20260905234322 31 82 3.2 9.7 0.00 0.00 0.00 62 1015.0
20260905233816 32 91 6.4 9.7 0.00 0.00 0.00 62 1015.0
20260905233311 32 291 3.2 3.2 0.00 0.00 0.00 62 1014.9
20260905232810 32 47 3.2 9.7 0.00 0.00 0.00 62 1014.7
20260905232307 32 44 4.8 9.7 0.00 0.00 0.00 61 1014.9
20260905231802 32 80 4.8 9.7 0.00 0.00 0.00 61 1014.8
20260905231257 32 70 3.2 6.4 0.00 0.00 0.00 62 1014.9
20260905230748 32 107 3.2 12.9 0.00 0.00 0.00 62 1014.8
20260905230245 32 79 6.4 11.3 0.00 0.00 0.00 61 1014.7
20260905225740 32 46 3.2 4.8 0.00 0.00 0.00 62 1014.8
20260905225235 32 135 1.6 6.4 0.00 0.00 0.00 61 1015.0
20260905224734 32 67 8.0 9.7 0.00 0.00 0.00 62 1014.8
20260905224230 32 11 9.7 12.9 0.00 0.00 0.00 60 1014.9
20260905223726 32 76 4.8 12.9 0.00 0.00 0.00 61 1015.2
20260905223222 32 339 3.2 6.4 0.00 0.00 0.00 61 1014.9
20260905222718 32 92 6.4 11.3 0.00 0.00 0.00 61 1015.1
20260905222217 32 84 8.0 12.9 0.00 0.00 0.00 60 1014.9
20260905221713 32 95 4.8 11.3 0.00 0.00 0.00 60 1015.3
20260905221210 32 217 3.2 9.7 0.00 0.00 0.00 62 1015.1
20260905220705 32 112 4.8 4.8 0.00 0.00 0.00 63 1015.2
20260905220201 32 96 6.4 9.7 0.00 0.00 0.00 63 1015.1
20260905215700 32 75 1.6 11.3 0.00 0.00 0.00 63 1015.3
20260905215156 32 110 6.4 9.7 0.00 0.00 0.00 62 1015.4
20260905214652 32 287 1.6 6.4 0.00 0.00 0.00 62 1015.5
20260905214147 32 85 3.2 12.9 0.00 0.00 0.00 62 1015.5
20260905213642 32 230 3.2 9.7 0.00 0.00 0.00 63 1015.8
20260905213137 32 154 4.8 12.9 0.00 0.00 0.00 65 1015.8
20260905212632 32 89 8.0 16.1 0.00 0.00 0.00 65 1015.6
20260905212132 32 146 8.0 11.3 0.00 0.00 0.00 65 1016.0
20260905211627 32 100 6.4 16.1 0.00 0.00 0.00 65 1016.1
20260905211123 32 119 6.4 9.7 0.00 0.00 0.00 66 1016.1
20260905210620 32 302 0.0 3.2 0.00 0.00 0.00 64 1016.2
20260905210113 32 49 3.2 6.4 0.00 0.00 0.00 64 1016.3
20260905205612 32 224 8.0 12.9 0.00 0.00 0.00 64 1016.4
20260905205112 31 292 3.2 9.7 0.00 0.00 0.00 65 1016.3
20260905204606 31 101 9.7 12.9 0.00 0.00 0.00 66 1016.5
20260905204102 31 136 8.0 11.3 0.00 0.00 0.00 67 1016.5
20260905203601 32 4 3.2 6.4 0.00 0.00 0.00 67 1016.5
20260905203057 31 105 6.4 12.9 0.00 0.00 0.00 69 1016.6
20260905202552 31 321 0.0 9.7 0.00 0.00 0.00 68 1016.6
20260905202048 31 129 8.0 12.9 0.00 0.00 0.00 67 1016.7
20260905201543 31 89 3.2 4.8 0.00 0.00 0.00 66 1016.6